(401614) = 2013 GP42

Discovered at Kitt Peak on 2006-03-23 by Spacewatch.

Orbit

Orbit type: Main Belt

Note: WebGL enabled browser required.

epoch2024-03-31.0
epoch JD2460400.5
perihelion date2022-01-13.45944
perihelion JD2459592.95944
argument of perihelion (°)196.49371
ascending node (°)185.56335
inclination (°)4.64082
eccentricity0.1206662
perihelion distance (AU)2.0311178
Tisserand w.r.t. Jupiter3.6
ΔV w.r.t. Earth (km/sec)9.0
semimajor axis (AU)2.3098371
mean anomaly (°)226.72330
mean daily motion (°/day)0.28075780
aphelion distance (AU)2.589
period (years)3.51
P-vector [x]0.92690059
P-vector [y]0.35282911
P-vector [z]0.12793325
Q-vector [x]-0.37522496
Q-vector [y]0.87832070
Q-vector [z]0.29624142
absolute magnitude17.7
phase slope0.15
uncertainty0
referenceMPEC 2024-E133
observations used263
oppositions14
arc length (days)7671
first opposition used2002
last opposition used2023
residual rms (arc-secs)0.72
perturbers coarse indicatorM-v
perturbers precise indicator003Ek
first observation date used2002-03-12.0
last observation date used2023-03-13.0
computer nameMPCLINUX
JD of orbit computation2456966.811778
perihelion JD uncertainty (days)7.8651E-05
argument of perihelion uncertainty (°)5.1132E-05
ascending node uncertainty (°)4.6630E-05
inclination uncertainty (°)6.7212E-06
eccentricity uncertainty 8.0601E-08
perihelion distance uncertainty (AU)1.9686E-07
Minimum Orbit Intersection Distances (in AU)
for orbit epoch: 2460400.5, reference: E2024-ED3
Mercury1.68815
Venus1.30651
Earth1.03429
Mars0.59195
Jupiter2.85407
Saturn6.78758
Uranus15.8988
Neptune27.7812

Observations

264 total observations over interval: 2002 03 12.200300 – 2023 03 13.187870
These data are available for download (format description).

Date (UT) J2000 RA J2000 Dec Magn Location Ref
2002 03 12.200300 09 56 57.809 +08 43 01.87 21.19 V 645 – Apache Point-Sloan Digital Sky Survey MPS 476443
2002 03 12.203772 09 56 57.657 +08 43 03.22 21.99   645 – Apache Point-Sloan Digital Sky Survey MPS 476443
2004 12 14.95881 05 19 53.60 +14 48 44.2 19.3 R 599 – Campo Imperatore-CINEOS MPS 476443
2004 12 14.96874 05 19 52.92 +14 48 43.1 19.7 R 599 – Campo Imperatore-CINEOS MPS 476443
2004 12 14.97867 05 19 52.27 +14 48 42.7 19.6 R 599 – Campo Imperatore-CINEOS MPS 476443
2004 12 14.98867 05 19 51.61 +14 48 42.1 19.6 R 599 – Campo Imperatore-CINEOS MPS 476443
2006 03 23.38091 13 58 58.52 -10 10 17.1 21.3 V 691 – Steward Observatory, Kitt Peak-Spacewatch MPS 476443
2006 03 23.39831 13 58 57.81 -10 10 11.2 21.4 V 691 – Steward Observatory, Kitt Peak-Spacewatch MPS 476443
2006 03 23.41580 13 58 57.21 -10 10 04.6 21.4 V 691 – Steward Observatory, Kitt Peak-Spacewatch MPS 476443
2006 04 02.30690 13 51 43.04 -09 08 51.1 21.0 V 691 – Steward Observatory, Kitt Peak-Spacewatch MPS 476443
2006 04 02.32763 13 51 42.00 -09 08 42.7 21.1 V 691 – Steward Observatory, Kitt Peak-Spacewatch MPS 476443
2006 04 02.34495 13 51 41.11 -09 08 35.8 21.1 V 691 – Steward Observatory, Kitt Peak-Spacewatch MPS 476443
2007 09 12.23280 22 33 04.68 -05 27 39.5 19.7 V G96 – Mt. Lemmon Survey MPS 476443
2007 09 12.23801 22 33 04.42 -05 27 42.0 19.4 V G96 – Mt. Lemmon Survey MPS 476443
2007 09 12.24336 22 33 04.14 -05 27 44.9 19.7 V G96 – Mt. Lemmon Survey MPS 476443
2007 09 12.24862 22 33 03.88 -05 27 47.5 19.5 V G96 – Mt. Lemmon Survey MPS 476443
2007 10 19.16462 22 20 40.27 -08 59 10.4 20.7 V G96 – Mt. Lemmon Survey MPS 476443
2007 10 19.17220 22 20 40.38 -08 59 11.0 21.1 V G96 – Mt. Lemmon Survey MPS 476443
2007 10 19.17990 22 20 40.45 -08 59 12.3 21.0 V G96 – Mt. Lemmon Survey MPS 476443
2007 10 19.18763 22 20 40.52 -08 59 13.3 20.8 V G96 – Mt. Lemmon Survey MPS 476443
2009 02 03.35062 10 18 50.32 +05 22 19.2 20.9 V 691 – Steward Observatory, Kitt Peak-Spacewatch MPS 476443
2009 02 03.36870 10 18 49.26 +05 22 25.6 20.8 V 691 – Steward Observatory, Kitt Peak-Spacewatch MPS 476443
2009 02 03.38678 10 18 48.34 +05 22 31.0 21.2 V 691 – Steward Observatory, Kitt Peak-Spacewatch MPS 476443
2009 02 20.31599 10 02 59.20 +07 14 17.0 20.4 V G96 – Mt. Lemmon Survey MPS 476443
2009 02 20.32455 10 02 58.70 +07 14 21.4 20.0 V G96 – Mt. Lemmon Survey MPS 476443
2009 02 20.33321 10 02 58.16 +07 14 24.8 20.7 V G96 – Mt. Lemmon Survey MPS 476443
2009 02 20.34175 10 02 57.69 +07 14 28.4 20.7 V G96 – Mt. Lemmon Survey MPS 476443
2011 11 30.35934 05 17 55.35 +15 05 40.8 19.4 V G96 – Mt. Lemmon Survey MPS 476443
2011 11 30.36682 05 17 54.85 +15 05 39.6 19.6 V G96 – Mt. Lemmon Survey MPS 476443
2011 11 30.37440 05 17 54.34 +15 05 38.1 19.4 V G96 – Mt. Lemmon Survey MPS 476443
2011 11 30.38198 05 17 53.88 +15 05 36.7 19.5 V G96 – Mt. Lemmon Survey MPS 476443
2013 04 08.34076 13 36 27.50 -07 41 10.6 20.3 V G96 – Mt. Lemmon Survey MPS 462862
2013 04 08.34691 13 36 27.14 -07 41 08.2 20.9 V G96 – Mt. Lemmon Survey MPS 462862
2013 04 08.35309 13 36 26.78 -07 41 05.6 20.9 V G96 – Mt. Lemmon Survey MPS 462862
2013 04 08.35926 13 36 26.46 -07 41 02.7 21.2 V G96 – Mt. Lemmon Survey MPS 462862
2013 04 10.41704 13 34 33.578 -07 26 06.47 20.7 w F51 – Pan-STARRS 1, Haleakala MPS 462862
2013 04 10.43067 13 34 32.795 -07 26 00.53 20.7 w F51 – Pan-STARRS 1, Haleakala MPS 462862
2013 04 10.44436 13 34 32.005 -07 25 54.54 20.8 w F51 – Pan-STARRS 1, Haleakala MPS 462862
2013 04 10.45807 13 34 31.220 -07 25 48.57 20.8 w F51 – Pan-STARRS 1, Haleakala MPS 462862
2013 05 03.36906 13 14 32.508 -04 51 12.27 21.3 w F51 – Pan-STARRS 1, Haleakala MPS 474414
2013 05 03.38263 13 14 31.878 -04 51 07.57 21.2 w F51 – Pan-STARRS 1, Haleakala MPS 474414
2013 05 03.39620 13 14 31.242 -04 51 02.98 21.3 w F51 – Pan-STARRS 1, Haleakala MPS 474414
2013 05 03.40974 13 14 30.624 -04 50 58.51 21.1 w F51 – Pan-STARRS 1, Haleakala MPS 474414
2014 08 22.42776 22 33 19.677 -04 04 52.06 19.8 w F51 – Pan-STARRS 1, Haleakala MPS 529690
2014 08 22.43951 22 33 19.067 -04 04 57.12 20.0 w F51 – Pan-STARRS 1, Haleakala MPS 529690
2014 08 22.45124 22 33 18.459 -04 05 02.16 19.8 w F51 – Pan-STARRS 1, Haleakala MPS 529690
2014 08 22.46292 22 33 17.849 -04 05 07.16 19.7 w F51 – Pan-STARRS 1, Haleakala MPS 529690
2014 08 23.43984 22 32 29.843 -04 12 09.59 19.7 w F51 – Pan-STARRS 1, Haleakala MPS 529690
2014 08 23.45203 22 32 29.201 -04 12 14.93 19.6 w F51 – Pan-STARRS 1, Haleakala MPS 529690
2014 08 23.46425 22 32 28.558 -04 12 20.27 19.7 w F51 – Pan-STARRS 1, Haleakala MPS 529690
2014 08 23.47649 22 32 27.912 -04 12 25.65 19.8 w F51 – Pan-STARRS 1, Haleakala MPS 529690
2014 08 30.32312 22 26 40.03 -05 04 50.5 19.6 V 703 – Catalina Sky Survey MPS 531424
2014 08 30.33074 22 26 39.62 -05 04 54.3 19.6 V 703 – Catalina Sky Survey MPS 531424
2014 08 30.33832 22 26 39.22 -05 04 58.0 19.0 V 703 – Catalina Sky Survey MPS 531424
2014 08 30.34590 22 26 38.78 -05 05 01.9 19.4 V 703 – Catalina Sky Survey MPS 531424
2014 09 03.23046 22 23 20.40 -05 36 16.2 19.5 V G96 – Mt. Lemmon Survey MPS 531424
2014 09 03.23637 22 23 20.07 -05 36 18.7 19.3 V G96 – Mt. Lemmon Survey MPS 531424
2014 09 03.24229 22 23 19.76 -05 36 21.7 19.4 V G96 – Mt. Lemmon Survey MPS 531424
2014 09 03.24822 22 23 19.45 -05 36 24.7 19.4 V G96 – Mt. Lemmon Survey MPS 531424
2014 09 16.30878 22 13 17.826 -07 20 16.44 20.0 w F51 – Pan-STARRS 1, Haleakala MPS 533083
2014 09 16.32140 22 13 17.293 -07 20 21.99 20.0 w F51 – Pan-STARRS 1, Haleakala MPS 533083
2014 09 16.33405 22 13 16.758 -07 20 27.79 20.0 w F51 – Pan-STARRS 1, Haleakala MPS 533083
2014 09 16.34673 22 13 16.220 -07 20 33.54 20.0 w F51 – Pan-STARRS 1, Haleakala MPS 533083
2014 09 18.28933 22 12 02.465 -07 34 58.15 20.1 w F51 – Pan-STARRS 1, Haleakala MPS 533083
2014 09 18.35917 22 11 59.697 -07 35 28.83 20.1 w F51 – Pan-STARRS 1, Haleakala MPS 533083
2014 09 18.37087 22 11 59.239 -07 35 33.91 20.1 w F51 – Pan-STARRS 1, Haleakala MPS 533083
2014 10 01.17599 22 06 27.19 -08 56 40.4 20.4 V G96 – Mt. Lemmon Survey MPS 538822
2014 10 01.18130 22 06 27.12 -08 56 42.4 20.1 V G96 – Mt. Lemmon Survey MPS 538822
2014 10 01.18661 22 06 27.02 -08 56 43.8 20.4 V G96 – Mt. Lemmon Survey MPS 538822
2014 10 01.19191 22 06 26.95 -08 56 45.8 20.3 V G96 – Mt. Lemmon Survey MPS 538822
2014 10 25.14746 22 10 07.59 -10 02 51.3 21.3 V G96 – Mt. Lemmon Survey MPS 544212
2014 10 25.15355 22 10 07.79 -10 02 51.6 20.8 V G96 – Mt. Lemmon Survey MPS 544212
2014 10 25.15964 22 10 07.96 -10 02 51.6 20.8 V G96 – Mt. Lemmon Survey MPS 544212
2014 10 25.16572 22 10 08.13 -10 02 51.8 21.9 V G96 – Mt. Lemmon Survey MPS 544212
2016 01 14.61435 10 21 45.657 +04 46 57.41 21.4 w F51 – Pan-STARRS 1, Haleakala MPS 671626
2016 01 14.62557 10 21 45.365 +04 46 58.91 21.4 w F51 – Pan-STARRS 1, Haleakala MPS 671626
2016 01 14.63684 10 21 45.063 +04 47 00.44 21.4 w F51 – Pan-STARRS 1, Haleakala MPS 671626
2016 01 14.64807 10 21 44.769 +04 47 01.67 21.5 w F51 – Pan-STARRS 1, Haleakala MPS 671626
2016 01 17.58458 10 20 24.926 +04 54 01.68 21.4 w F51 – Pan-STARRS 1, Haleakala MPS 673871
2016 01 17.59663 10 20 24.562 +04 54 03.55 21.5 w F51 – Pan-STARRS 1, Haleakala MPS 673871
2016 01 17.60864 10 20 24.165 +04 54 05.59 21.4 w F51 – Pan-STARRS 1, Haleakala MPS 673871
2016 02 05.44587 10 06 48.541 +06 18 01.25 20.8 w F51 – Pan-STARRS 1, Haleakala MPS 682327
2016 02 05.45877 10 06 47.816 +06 18 05.98 20.8 w F51 – Pan-STARRS 1, Haleakala MPS 682327
2016 02 05.47163 10 06 47.085 +06 18 10.66 20.8 w F51 – Pan-STARRS 1, Haleakala MPS 682327
2016 02 06.47538 10 05 52.142 +06 24 15.67 20.8 w F51 – Pan-STARRS 1, Haleakala MPS 682327
2016 02 06.48864 10 05 51.375 +06 24 20.61 20.8 w F51 – Pan-STARRS 1, Haleakala MPS 682327
2016 02 06.51513 10 05 49.857 +06 24 30.41 20.8 w F51 – Pan-STARRS 1, Haleakala MPS 682327
2016 02 11.17974 10 01 26.17 +06 54 17.7 20.9 r G45 – Space Surveillance Telescope, Atom Site MPS 686050
2016 02 11.18463 10 01 25.86 +06 54 20.5 20.7 r G45 – Space Surveillance Telescope, Atom Site MPS 686050
2016 02 11.18971 10 01 25.55 +06 54 21.9 20.7 r G45 – Space Surveillance Telescope, Atom Site MPS 686050
